Location: Holzwiesen
(48.1405°N, 8.8565°E)
Time: 22:41:31
(UTC+00:00)

Daily predictions for brighter satellites

Satellite Brightness Start Highest point End
(mag) Time Altitude Azimuth Time Altitude Azimuth Time Altitude Azimuth
Cosmos 2237 Rocket 2.9 17:02:08 10° NNW 17:07:16 34° NE 17:12:24 10° ESE
Cosmos 1802 Rocket 4.1 17:00:55 10° N 17:07:21 83° E 17:13:48 10° S
Cosmos 2285 Rocket 4.4 17:02:54 10° NNW 17:09:00 42° ENE 17:15:02 10° SE
Cosmos 2233 Rocket 4.1 17:07:19 10° N 17:13:32 60° ENE 17:19:45 10° SSE
Cosmos 2219 Rocket 3.7 17:08:38 10° NW 17:13:51 41° WSW 17:19:02 10° S
SJ-6B 4.4 17:15:07 10° E 17:16:32 12° ENE 17:17:57 10° NE
Cosmos 1867 3.8 17:13:06 10° SW 17:18:32 74° NW 17:24:01 10° NE
CARTOSAT-1 4.4 17:14:57 10° SE 17:18:34 28° ENE 17:22:11 10° N
USA 267 3.4 17:13:52 10° NE 17:20:25 76° NNW 17:26:57 10° WSW
Cosmos 1725 Rocket 4.1 17:14:45 10° N 17:21:03 87° W 17:27:19 10° S
Aureole 3 Rocket 3.5 17:18:45 10° N 17:22:18 28° ENE 17:25:13 10° SE
SJ-12 4.1 17:19:27 10° S 17:23:14 68° WSW 17:27:02 10° NNW
NOSS 0 Rocket 3.9 17:17:44 10° NNW 17:24:01 71° ENE 17:30:14 10° SE
Cosmos 2322 3.9 17:19:43 10° NNW 17:25:27 82° WSW 17:31:10 10° SSE
Cosmos 192 4.3 17:21:12 10° NNW 17:26:06 85° ENE 17:30:58 10° SSE
UNK 4.5 17:22:23 10° N 17:26:52 56° WNW 17:31:20 10° SSW
SL-08 R/B 4.5 17:21:22 10° N 17:27:34 85° E 17:33:40 10° S
Cosmos 2151 Rocket 3.6 17:26:48 10° N 17:31:20 85° E 17:35:49 10° S
SL-16 R/B 3.6 17:27:49 10° N 17:31:54 20° NE 17:35:23 12° E
Cosmos 1814 Rocket 4.2 17:27:05 10° SSW 17:32:22 78° WNW 17:37:38 10° NNE
Cosmos 2227 Rocket 3.6 17:29:41 10° SE 17:33:17 18° E 17:36:54 10° ENE
SAR-Lupe-1 4.0 17:31:25 10° SSE 17:34:58 88° ENE 17:38:35 10° NNW
Cosmos 1607 4.0 17:31:40 10° SW 17:37:48 84° NW 17:44:03 10° NE
Cosmos 1315 Rocket 3.3 17:34:44 10° NNW 17:38:30 62° W 17:42:13 10° S
ATLAS 5 CENTAUR R/B 3.6 17:34:32 10° WNW 17:38:33 34° WSW 17:43:23 10° S
Cosmos 1125 Rocket 3.4 17:33:33 10° NNW 17:38:45 70° ENE 17:43:55 10° SSE
Cosmos 2061 Rocket 4.0 17:32:23 10° N 17:38:49 79° E 17:45:07 10° SSE
SL-16 R/B 4.2 17:36:47 10° N 17:42:11 33° WNW 17:47:36 10° WSW
ARIANE 6 FM1 Upper Stage 4.4 17:40:15 10° NNW 17:42:53 17° NNE 17:44:44 13° NE
Cosmos 1455 Rocket 3.5 17:39:13 10° N 17:43:14 37° ENE 17:47:14 10° SE
CZ-4C R/B 1.8 17:39:30 10° SW 17:43:43 82° NW 17:49:11 10° NE
NOSS 3-3 (C) 3.7 17:39:02 10° SSW 17:44:12 74° SE 17:50:24 10° NE
Cosmos 1975 Rocket 4.2 17:41:25 10° SE 17:44:39 21° E 17:47:54 10° NE
BREEZE-M DEB (TANK) 3.4 17:41:17 10° WNW 17:45:31 79° SSW 17:52:49 10° ESE
USA 306 3.1 17:43:28 10° WNW 17:46:02 31° SW 17:47:47 10° SSE
YAOGAN 1 2.5 17:41:53 10° SSE 17:46:08 85° ENE 17:50:25 10° NNW
Cosmos 158 Rocket 4.4 17:42:25 10° SW 17:47:13 61° WNW 17:52:04 10° NNE
SeaSat 1 3.2 17:43:19 10° SSE 17:48:07 55° WSW 17:52:56 10° NW
SAR-Lupe-4 4.3 17:47:38 10° S 17:51:09 56° WSW 17:54:41 10° NNW
Cosmos 1464 Rocket 4.5 17:46:02 10° N 17:51:55 37° ENE 17:57:42 10° SE
NOAA 6 4.0 17:48:56 10° SSE 17:54:01 66° ENE 17:59:09 10° N
Spot 4 Rocket 3.9 17:49:29 10° SSE 17:54:36 81° ENE 17:59:44 10° NNW
COSMO-SKYMED 1 2.3 17:52:17 10° NNE 17:56:25 70° ESE 18:00:30 10° S
CZ-4 R/B 3.4 17:58:01 11° NE 17:58:01 11° NE 17:58:26 10° NNE
PSLV R/B 3.3 17:52:39 10° SSE 17:56:45 70° ENE 18:00:50 10° N
Cosmos 2228 3.7 17:53:07 10° N 17:56:49 29° ENE 18:00:31 10° SE
Okean 1 Rocket 3.2 17:53:09 10° NNW 17:57:34 80° W 18:01:55 10° S
USA 234 4.3 17:51:51 10° SSE 17:58:05 45° SW 18:04:21 10° WNW
Cosmos 2221 Rocket 3.6 17:55:02 10° S 17:59:30 87° E 18:04:02 10° N
Okean 2 Rocket 3.5 17:55:31 10° NNW 17:59:53 65° W 18:04:12 10° S
ARIANE 5 R/B 4.4 17:55:47 10° SSW 18:00:23 34° W 18:05:00 10° NNW
SPOT 5 3.9 18:00:21 20° E 18:02:20 25° ENE 18:06:26 10° N
Cosmos 773 Rocket 4.4 17:58:04 10° S 18:02:59 41° ESE 18:07:56 10° NE
BREEZE-M (TANK) 2.8 18:04:40 10° WNW 18:07:12 66° SSW 18:12:02 15° ESE
Radarsat Rocket 4.1 18:01:52 10° SSE 18:07:43 83° WSW 18:14:03 10° NNW
CZ-2D R/B 3.9 18:06:09 10° S 18:09:59 61° WSW 18:13:58 10° NNW
NOSS 3-3 (A) 4.0 18:06:41 10° SW 18:11:54 68° NW 18:18:12 10° NE
Sich 1 Rocket 4.3 18:08:35 10° NNW 18:13:04 60° W 18:17:32 10° S
CSL-04 Rocket 4.2 18:11:33 20° ESE 18:14:26 34° ENE 18:19:10 10° N
IRAS Rocket 4.2 18:10:46 10° SSE 18:16:19 67° ENE 18:21:55 10° NNW
Cosmos 2297 Rocket 2.1 18:11:45 10° SSW 18:17:24 83° ESE 18:23:06 10° NNE
Tiangong -0.1 18:16:26 10° SSW 18:18:37 17° SSE 18:18:49 17° SSE
Cosmos 1025 Rocket 4.2 18:15:34 10° SSW 18:19:42 45° WNW 18:23:53 10° N
Cosmos 836 Rocket 4.4 18:15:08 10° S 18:20:22 69° ESE 18:25:38 10° NNE
Resurs 01 Rocket 1.6 18:17:52 10° SSE 18:22:16 88° WSW 18:26:42 10° NNW
Orbus 7S? 4.2 18:13:46 10° NW 18:22:42 72° NNE 18:24:45 32° ESE
Cosmos 2150 Rocket 3.9 18:18:14 10° NNW 18:23:22 61° ENE 18:27:13 17° SE
Cosmos 2298 Rocket 4.0 18:20:29 10° NNW 18:25:45 61° ENE 18:29:31 19° SE
Cosmos 2344 3.9 18:22:39 10° S 18:29:54 39° ESE 18:32:55 27° ENE
NOSS 3-4 (A) 3.8 18:24:17 10° NW 18:31:01 86° NE 18:37:51 15° SE
NOSS 3-4 (C) 3.8 18:24:33 10° NW 18:31:18 85° NE 18:38:02 15° SE
Cosmos 1782 3.3 18:29:05 10° N 18:31:36 36° NNE 18:31:36 36° NNE
BREEZE-M DEB (TANK) 4.4 18:07:57 10° WSW 18:33:13 73° S 18:36:50 31° E
CRYOSAT 2 4.4 18:31:05 10° N 18:36:00 82° W 18:40:53 10° S
Helios 1A Rocket 3.9 18:39:28 24° S 18:39:28 24° S 18:40:56 10° S
CZ-4B R/B 3.8 18:43:54 58° NE 18:43:54 58° NE 18:47:28 10° N
Lacrosse 5 rocket 2.8 18:41:38 10° WNW 18:44:26 21° N 18:44:56 21° N
Cosmos 2263 Rocket 2.7 18:42:17 10° S 18:46:41 37° SE 18:46:41 37° SE
ATLAS 2AS CENTAUR R/B 4.4 18:42:30 10° NW 18:47:41 22° N 18:51:31 14° NE
Terra 3.6 18:51:38 18° NNE 18:51:38 18° NNE 18:53:10 10° N
SJ-6B 3.1 18:46:43 15° S 18:49:27 56° W 18:52:51 10° NNW
Cosmos 2237 Rocket 3.1 18:46:03 10° NW 18:51:31 48° WSW 18:56:56 10° S
Cosmos 44 Rocket 3.3 18:55:51 10° SW 19:00:46 82° NW 19:02:15 47° NNE
ERS-1 Rocket 4.1 19:04:25 29° NNE 19:04:25 29° NNE 19:07:13 10° N
USA 267 4.0 18:59:48 26° NE 19:03:00 44° N 19:09:07 10° W
Meteor 1-31 Rocket 4.4 19:06:44 23° NNW 19:06:44 23° NNW 19:08:09 10° NNW
Cosmos 1816 Rocket 4.4 18:58:40 10° S 19:04:49 89° E 19:11:05 10° N
Cosmos 2034 Rocket 3.8 19:02:58 10° N 19:09:10 86° E 19:13:44 19° S
ADEOS 4.2 19:12:55 42° NNE 19:12:55 42° NNE 19:16:37 10° N
Cosmos 1544 Rocket 4.3 19:11:21 10° N 19:14:21 44° NNW 19:14:21 44° NNW
Cosmos 2227 Rocket 2.2 19:10:57 10° SSW 19:16:35 81° WNW 19:18:49 39° NNE
SL-16 R/B 2.0 19:11:10 10° NNW 19:16:53 83° ENE 19:17:18 76° SE
Cosmos 1634 Rocket 4.1 19:11:17 10° N 19:17:04 57° ENE 19:17:04 57° ENE
Cosmos 1975 Rocket 4.2 19:17:58 10° SW 19:22:06 41° WNW 19:26:13 10° N
ARIANE 6 FM1 Upper Stage 4.2 19:18:42 10° NW 19:20:45 28° NNW 19:20:45 28° NNW
CZ-4 R/B 3.7 19:33:01 16° NNW 19:33:01 16° NNW 19:33:50 10° NNW
CZ-4C R/B 3.9 19:28:55 10° WNW 19:32:54 24° NNW 19:35:03 20° NNE
Gbstr 26 Del rocket 4.4 19:31:28 10° SW 19:37:45 59° SSE 19:37:45 59° SSE
CZ-4B R/B 3.8 19:40:18 45° N 19:40:18 45° N 19:43:56 10° NNW
SPOT 5 3.7 19:39:23 46° WSW 19:39:57 49° W 19:44:52 10° NNW
CZ-4B DEB 4.5 19:43:20 63° WSW 19:43:28 63° WSW 19:48:54 10° NNW
Cosmos 2297 Rocket 4.3 19:57:46 10° W 20:02:09 22° NW 20:06:06 12° N
Cosmos 1943 4.5 20:00:16 10° NNW 20:03:26 34° NNW 20:03:26 34° NNW
Terra 4.5 20:30:15 15° NNW 20:30:15 15° NNW 20:31:04 10° NNW
Cosmos 2263 Rocket 4.1 20:26:06 10° WSW 20:28:28 23° WSW 20:28:28 23° WSW
ATLAS 2AS CENTAUR R/B 4.3 20:35:07 10° NW 20:38:56 24° N 20:38:56 24° N
Cosmos 2344 4.1 20:36:37 10° WSW 20:43:00 50° WNW 20:43:00 50° WNW
USA 267 4.4 20:47:08 36° NNW 20:47:08 36° NNW 20:51:23 10° WNW
